ASIASAT 5

Last updated on Sun Nov 16 2025 00:03:41 GMT+0000 (Coordinated Universal Time)

1 35696U 09042A 25319.54335572 -.00000300 00000+0 00000+0 0 9990 2 35696 0.0095 337.4438 0001671 244.6756 128.8998 1.00271797 59560
UTC large
Height (km)
Speed (km/s)
/
Latitude / Longitude
Inclination (degrees)
Orbital Period (minutes)
Azimuth
Elevation
Range (km)
Doppler Factor

Next 0 passes for location: London (51.5072 / 0.1276)

Sorry there are no passes over London.